Hourly Weather Roundup
Issued by NWS Central Illinois

Home | Current Version | Previous Version | Text Only | Print | Product List | Glossary On
Versions: 1 2 3 4 5 6 7 8 9 10 11 12 13 14 15 16 17 18 19 20 21 22 23 24 25 26 27 28 29 30 31 32 33 34 35 36 37 38 39 40 41 42 43 44 45 46 47 48 49 50
000
NZUS43 KILX 230910
HWRILX

Area Weather Roundup
National Weather Service Lincoln IL
400 AM CDT SAT SEP 23 2017

NOTE:  "FAIR" indicates few or no clouds below 12,000 feet, with
       no sigificant weather and/or obstructions to visibility.


CITY           SKY/WX    TMP DP  RH WIND       PRES   REMARKS
Bloomington    NOT AVBL
Champaign      NOT AVBL
Danville       CLEAR     64  64  99 CALM      30.03S
Decatur        CLEAR     67  64  90 CALM      30.04S
Effingham      MOCLDY    69  67  94 CALM      30.05S
Flora          CLEAR     68  66  95 CALM      30.03S
Galesburg      CLEAR     68  64  86 E5        30.03S
Jacksonville   CLEAR     65  62  88 SE3       30.02S
Lacon          PTCLDY    67  65  94 SE3       30.02R
Lawrenceville  CLEAR     69  68  96 NE3       30.04S
Litchfield     CLEAR     70  66  86 SE3       30.03S
$$


CITY           SKY/WX    TMP DP  RH WIND       PRES   REMARKS
Lincoln        CLEAR     69  66  90 CALM      30.03S
Macomb         CLEAR     62  60  94 SE3       30.04R
Mattoon        CLEAR     71  68  90 S5        30.03S
Mt Carmel AP   FOG       66  65  97 CALM      30.04S VSB 1/2
Olney-Noble AP CLEAR     67  65  93 CALM      30.04S
Paris AP       CLEAR     67  67  98 CALM      30.06R
Peoria         CLEAR     72  66  81 CALM      30.03R
Pontiac        CLEAR     69  68  98 SE3       30.04R
Rantoul        CLEAR     71  68  88 CALM      30.05S
Robinson       FOG       64  64 100 CALM      30.05S VSB 3/4
Springfield    CLEAR     69  65  86 CALM      30.03S
Taylorville    CLEAR     67  65  91 SE3       30.04R
$$

...REGIONAL REPORTS...


CITY           SKY/WX    TMP DP  RH WIND       PRES   REMARKS
Chicago O`Hare CLEAR     74  65  73 W3        30.03S
Kankakee       CLEAR     67  66  97 CALM      30.05R
Moline         CLEAR     69  63  81 CALM      30.00S
Mount Sterling CLEAR     66  63  87 CALM      30.01S
Mount Vernon     N/A     63  63 100 CALM      30.03S
Pittsfield     CLEAR     68  64  86 CALM      30.03S
Quincy         CLEAR     74  62  66 S7        30.01R
Rockford       CLEAR     68  64  87 CALM      30.04R
$$


CITY           SKY/WX    TMP DP  RH WIND       PRES   REMARKS
Burlington     CLEAR     70  64  81 SE3       30.00S
Cedar Rapids   CLEAR     69  64  84 SE5       29.99R
Des Moines     CLEAR     73  67  81 S7        29.95R
Kirksville     CLEAR     69  64  84 S5        30.00S
Ottumwa        CLEAR     71  65  81 S7        29.98S
St Louis       CLEAR     74  65  73 CALM      30.02S
$$


CITY           SKY/WX    TMP DP  RH WIND       PRES   REMARKS
Terre Haute    CLEAR     66  64  93 CALM      30.05R
Evansville     CLEAR     68  66  93 CALM      30.03S
Indianapolis   PTCLDY    71  66  84 SE3       30.06S
Lafayette      CLEAR     67  67 100 CALM      30.05R
Madison        CLEAR     67  65  93 CALM      30.02R
Milwaukee      CLEAR     75  67  76 SW7       30.02S
$$






USA.gov is the U.S. government's official web portal to all federal, state and local government web resources and services.